Year,Month,Day,Hour,Minute,Value (Times are PST for temperature in C)
2018,10,15,00,00,9.00
2018,10,15,00,01,9.00
2018,10,15,00,02,9.00
2018,10,15,00,03,9.00
2018,10,15,00,04,9.00
2018,10,15,00,05,9.00
2018,10,15,00,06,9.00
2018,10,15,00,07,9.00
2018,10,15,00,08,9.10
2018,10,15,00,09,9.10
2018,10,15,00,10,9.20
2018,10,15,00,11,9.20
2018,10,15,00,12,9.30
2018,10,15,00,13,9.40
2018,10,15,00,14,9.40
2018,10,15,00,15,9.40
2018,10,15,00,16,9.50
2018,10,15,00,17,9.50
2018,10,15,00,18,9.60
2018,10,15,00,19,9.60
2018,10,15,00,20,9.70
2018,10,15,00,21,9.70
2018,10,15,00,22,9.60
2018,10,15,00,23,9.60
2018,10,15,00,24,9.50
2018,10,15,00,25,9.40
2018,10,15,00,26,9.40
2018,10,15,00,27,9.30
2018,10,15,00,28,9.20
2018,10,15,00,29,9.00
2018,10,15,00,30,8.80
2018,10,15,00,31,8.50
2018,10,15,00,32,8.30
2018,10,15,00,33,8.10
2018,10,15,00,34,7.90
2018,10,15,00,35,7.80
2018,10,15,00,36,7.60
2018,10,15,00,37,7.50
2018,10,15,00,38,7.30
2018,10,15,00,39,7.30
2018,10,15,00,40,7.20
2018,10,15,00,41,7.10
2018,10,15,00,42,7.10
2018,10,15,00,43,7.20
2018,10,15,00,44,7.30
2018,10,15,00,45,7.40
2018,10,15,00,46,7.70
2018,10,15,00,47,7.90
2018,10,15,00,48,8.10
2018,10,15,00,49,8.30
2018,10,15,00,50,8.40
2018,10,15,00,51,8.50
2018,10,15,00,52,8.50
2018,10,15,00,53,8.50
2018,10,15,00,54,8.50
2018,10,15,00,55,8.50
2018,10,15,00,56,8.50
2018,10,15,00,57,8.50
2018,10,15,00,58,8.50
2018,10,15,00,59,8.40
2018,10,15,01,00,8.20
2018,10,15,01,01,8.10
2018,10,15,01,02,7.90
2018,10,15,01,03,7.80
2018,10,15,01,04,7.70
2018,10,15,01,05,7.50
2018,10,15,01,06,7.40
2018,10,15,01,07,7.30
2018,10,15,01,08,7.20
2018,10,15,01,09,7.10
2018,10,15,01,10,7.00
2018,10,15,01,11,7.00
2018,10,15,01,12,6.90
2018,10,15,01,13,6.80
2018,10,15,01,14,6.80
2018,10,15,01,15,6.80
2018,10,15,01,16,6.70
2018,10,15,01,17,6.70
2018,10,15,01,18,6.70
2018,10,15,01,19,6.60
2018,10,15,01,20,6.60
2018,10,15,01,21,6.60
2018,10,15,01,22,6.50
2018,10,15,01,23,6.50
2018,10,15,01,24,6.40
2018,10,15,01,25,6.40
2018,10,15,01,26,6.40
2018,10,15,01,27,6.40
2018,10,15,01,28,6.50
2018,10,15,01,29,6.60
2018,10,15,01,30,6.80
2018,10,15,01,31,7.00
2018,10,15,01,32,7.20
2018,10,15,01,33,7.50
2018,10,15,01,34,7.80
2018,10,15,01,35,8.00
2018,10,15,01,36,8.30
2018,10,15,01,37,8.50
2018,10,15,01,38,8.70
2018,10,15,01,39,8.80
2018,10,15,01,40,8.90
2018,10,15,01,41,9.00
2018,10,15,01,42,9.10
2018,10,15,01,43,9.20
2018,10,15,01,44,9.20
2018,10,15,01,45,9.20
2018,10,15,01,46,9.10
2018,10,15,01,47,8.80
2018,10,15,01,48,8.50
2018,10,15,01,49,8.20
2018,10,15,01,50,8.00
2018,10,15,01,51,7.80
2018,10,15,01,52,7.50
2018,10,15,01,53,7.40
2018,10,15,01,54,7.30
2018,10,15,01,55,7.20
2018,10,15,01,56,7.20
2018,10,15,01,57,7.20
2018,10,15,01,58,7.30
2018,10,15,01,59,7.50
2018,10,15,02,00,7.60
2018,10,15,02,01,7.70
2018,10,15,02,02,7.80
2018,10,15,02,03,8.00
2018,10,15,02,04,8.10
2018,10,15,02,05,8.20
2018,10,15,02,06,8.40
2018,10,15,02,07,8.50
2018,10,15,02,08,8.60
2018,10,15,02,09,8.70
2018,10,15,02,10,8.80
2018,10,15,02,11,9.00
2018,10,15,02,12,9.10
2018,10,15,02,13,9.20
2018,10,15,02,14,9.30
2018,10,15,02,15,9.30
2018,10,15,02,16,9.40
2018,10,15,02,17,9.40
2018,10,15,02,18,9.50
2018,10,15,02,19,9.60
2018,10,15,02,20,9.60
2018,10,15,02,21,9.60
2018,10,15,02,22,9.60
2018,10,15,02,23,9.60
2018,10,15,02,24,9.50
2018,10,15,02,25,9.50
2018,10,15,02,26,9.40
2018,10,15,02,27,9.40
2018,10,15,02,28,9.30
2018,10,15,02,29,9.30
2018,10,15,02,30,9.30
2018,10,15,02,31,9.30
2018,10,15,02,32,9.20
2018,10,15,02,33,9.20
2018,10,15,02,34,9.20
2018,10,15,02,35,9.20
2018,10,15,02,36,9.20
2018,10,15,02,37,9.20
2018,10,15,02,38,9.20
2018,10,15,02,39,9.20
2018,10,15,02,40,9.20
2018,10,15,02,41,9.10
2018,10,15,02,42,9.10
2018,10,15,02,43,9.00
2018,10,15,02,44,8.90
2018,10,15,02,45,8.90
2018,10,15,02,46,8.80
2018,10,15,02,47,8.80
2018,10,15,02,48,8.70
2018,10,15,02,49,8.70
2018,10,15,02,50,8.60
2018,10,15,02,51,8.60
2018,10,15,02,52,8.50
2018,10,15,02,53,8.40
2018,10,15,02,54,8.40
2018,10,15,02,55,8.20
2018,10,15,02,56,8.00
2018,10,15,02,57,7.80
2018,10,15,02,58,7.50
2018,10,15,02,59,7.30
2018,10,15,03,00,7.10
2018,10,15,03,01,7.00
2018,10,15,03,02,6.80
2018,10,15,03,03,6.70
2018,10,15,03,04,6.50
2018,10,15,03,05,6.40
2018,10,15,03,06,6.30
2018,10,15,03,07,6.30
2018,10,15,03,08,6.30
2018,10,15,03,09,6.30
2018,10,15,03,10,6.30
2018,10,15,03,11,6.30
2018,10,15,03,12,6.30
2018,10,15,03,13,6.20
2018,10,15,03,14,6.20
2018,10,15,03,15,6.20
2018,10,15,03,16,6.20
2018,10,15,03,17,6.20
2018,10,15,03,18,6.20
2018,10,15,03,19,6.30
2018,10,15,03,20,6.30
2018,10,15,03,21,6.40
2018,10,15,03,22,6.50
2018,10,15,03,23,6.60
2018,10,15,03,24,6.70
2018,10,15,03,25,6.80
2018,10,15,03,26,6.90
2018,10,15,03,27,7.00
2018,10,15,03,28,7.10
2018,10,15,03,29,7.20
2018,10,15,03,30,7.30
2018,10,15,03,31,7.40
2018,10,15,03,32,7.40
2018,10,15,03,33,7.40
2018,10,15,03,34,7.40
2018,10,15,03,35,7.40
2018,10,15,03,36,7.40
2018,10,15,03,37,7.30
2018,10,15,03,38,7.20
2018,10,15,03,39,7.10
2018,10,15,03,40,6.90
2018,10,15,03,41,6.80
2018,10,15,03,42,6.70
2018,10,15,03,43,6.60
2018,10,15,03,44,6.50
2018,10,15,03,45,6.40
2018,10,15,03,46,6.30
2018,10,15,03,47,6.30
2018,10,15,03,48,6.20
2018,10,15,03,49,6.20
2018,10,15,03,50,6.20
2018,10,15,03,51,6.10
2018,10,15,03,52,6.10
2018,10,15,03,53,6.10
2018,10,15,03,54,6.10
2018,10,15,03,55,6.10
2018,10,15,03,56,6.20
2018,10,15,03,57,6.30
2018,10,15,03,58,6.50
2018,10,15,03,59,6.60
2018,10,15,04,00,6.70
2018,10,15,04,01,6.80
2018,10,15,04,02,6.90
2018,10,15,04,03,7.00
2018,10,15,04,04,7.00
2018,10,15,04,05,7.00
2018,10,15,04,06,7.00
2018,10,15,04,07,7.00
2018,10,15,04,08,7.00
2018,10,15,04,09,7.10
2018,10,15,04,10,7.10
2018,10,15,04,11,7.10
2018,10,15,04,12,7.20
2018,10,15,04,13,7.20
2018,10,15,04,14,7.20
2018,10,15,04,15,7.30
2018,10,15,04,16,7.30
2018,10,15,04,17,7.30
2018,10,15,04,18,7.30
2018,10,15,04,19,7.30
2018,10,15,04,20,7.30
2018,10,15,04,21,7.20
2018,10,15,04,22,7.10
2018,10,15,04,23,7.00
2018,10,15,04,24,6.80
2018,10,15,04,25,6.60
2018,10,15,04,26,6.40
2018,10,15,04,27,6.30
2018,10,15,04,28,6.10
2018,10,15,04,29,6.00
2018,10,15,04,30,5.90
2018,10,15,04,31,5.80
2018,10,15,04,32,5.70
2018,10,15,04,33,5.60
2018,10,15,04,34,5.50
2018,10,15,04,35,5.50
2018,10,15,04,36,5.40
2018,10,15,04,37,5.40
2018,10,15,04,38,5.30
2018,10,15,04,39,5.30
2018,10,15,04,40,5.30
2018,10,15,04,41,5.20
2018,10,15,04,42,5.20
2018,10,15,04,43,5.20
2018,10,15,04,44,5.20
2018,10,15,04,45,5.20
2018,10,15,04,46,5.10
2018,10,15,04,47,5.10
2018,10,15,04,48,5.10
2018,10,15,04,49,5.10
2018,10,15,04,50,5.10
2018,10,15,04,51,5.10
2018,10,15,04,52,5.10
2018,10,15,04,53,5.10
2018,10,15,04,54,5.10
2018,10,15,04,55,5.20
2018,10,15,04,56,5.10
2018,10,15,04,57,5.10
2018,10,15,04,58,5.10
2018,10,15,04,59,5.10
2018,10,15,05,00,5.10
2018,10,15,05,01,5.00
2018,10,15,05,02,5.00
2018,10,15,05,03,5.00
2018,10,15,05,04,5.00
2018,10,15,05,05,5.00
2018,10,15,05,06,4.90
2018,10,15,05,07,4.90
2018,10,15,05,08,4.90
2018,10,15,05,09,4.90
2018,10,15,05,10,4.90
2018,10,15,05,11,4.90
2018,10,15,05,12,4.90
2018,10,15,05,13,4.90
2018,10,15,05,14,4.90
2018,10,15,05,15,4.90
2018,10,15,05,16,4.90
2018,10,15,05,17,5.00
2018,10,15,05,18,5.00
2018,10,15,05,19,5.10
2018,10,15,05,20,5.10
2018,10,15,05,21,5.10
2018,10,15,05,22,5.10
2018,10,15,05,23,5.10
2018,10,15,05,24,5.10
2018,10,15,05,25,5.10
2018,10,15,05,26,5.10
2018,10,15,05,27,5.10
2018,10,15,05,28,5.10
2018,10,15,05,29,5.10
2018,10,15,05,30,5.20
2018,10,15,05,31,5.20
2018,10,15,05,32,5.20
2018,10,15,05,33,5.30
2018,10,15,05,34,5.30
2018,10,15,05,35,5.30
2018,10,15,05,36,5.30
2018,10,15,05,37,5.30
2018,10,15,05,38,5.30
2018,10,15,05,39,5.30
2018,10,15,05,40,5.30
2018,10,15,05,41,5.30
2018,10,15,05,42,5.30
2018,10,15,05,43,5.40
2018,10,15,05,44,5.30
2018,10,15,05,45,5.30
2018,10,15,05,46,5.30
2018,10,15,05,47,5.30
2018,10,15,05,48,5.30
2018,10,15,05,49,5.20
2018,10,15,05,50,5.20
2018,10,15,05,51,5.20
2018,10,15,05,52,5.20
2018,10,15,05,53,5.10
2018,10,15,05,54,5.10
2018,10,15,05,55,5.10
2018,10,15,05,56,5.00
2018,10,15,05,57,5.00
2018,10,15,05,58,5.00
2018,10,15,05,59,4.90
2018,10,15,06,00,4.90
2018,10,15,06,01,4.90
2018,10,15,06,02,4.90
2018,10,15,06,03,4.90
2018,10,15,06,04,4.90
2018,10,15,06,05,4.90
2018,10,15,06,06,4.90
2018,10,15,06,07,4.90
2018,10,15,06,08,4.90
2018,10,15,06,09,4.90
2018,10,15,06,10,4.80
2018,10,15,06,11,4.80
2018,10,15,06,12,4.80
2018,10,15,06,13,4.80
2018,10,15,06,14,4.80
2018,10,15,06,15,4.80
2018,10,15,06,16,4.80
2018,10,15,06,17,4.70
2018,10,15,06,18,4.70
2018,10,15,06,19,4.70
2018,10,15,06,20,4.70
2018,10,15,06,21,4.70
2018,10,15,06,22,4.70
2018,10,15,06,23,4.70
2018,10,15,06,24,4.70
2018,10,15,06,25,4.60
2018,10,15,06,26,4.60
2018,10,15,06,27,4.60
2018,10,15,06,28,4.60
2018,10,15,06,29,4.50
2018,10,15,06,30,4.50
2018,10,15,06,31,4.50
2018,10,15,06,32,4.50
2018,10,15,06,33,4.50
2018,10,15,06,34,4.50
2018,10,15,06,35,4.50
2018,10,15,06,36,4.50
2018,10,15,06,37,4.50
2018,10,15,06,38,4.50
2018,10,15,06,39,4.50
2018,10,15,06,40,4.50
2018,10,15,06,41,4.60
2018,10,15,06,42,4.60
2018,10,15,06,43,4.60
2018,10,15,06,44,4.60
2018,10,15,06,45,4.60
2018,10,15,06,46,4.60
2018,10,15,06,47,4.60
2018,10,15,06,48,4.70
2018,10,15,06,49,4.70
2018,10,15,06,50,4.70
2018,10,15,06,51,4.70
2018,10,15,06,52,4.70
2018,10,15,06,53,4.70
2018,10,15,06,54,4.70
2018,10,15,06,55,4.70
2018,10,15,06,56,4.70
2018,10,15,06,57,4.70
2018,10,15,06,58,4.70
2018,10,15,06,59,4.70
2018,10,15,07,00,4.70
2018,10,15,07,01,4.70
2018,10,15,07,02,4.70
2018,10,15,07,03,4.70
2018,10,15,07,04,4.60
2018,10,15,07,05,4.60
2018,10,15,07,06,4.60
2018,10,15,07,07,4.60
2018,10,15,07,08,4.60
2018,10,15,07,09,4.60
2018,10,15,07,10,4.60
2018,10,15,07,11,4.60
2018,10,15,07,12,4.60
2018,10,15,07,13,4.60
2018,10,15,07,14,4.60
2018,10,15,07,15,4.60
2018,10,15,07,16,4.60
2018,10,15,07,17,4.50
2018,10,15,07,18,4.50
2018,10,15,07,19,4.50
2018,10,15,07,20,4.40
2018,10,15,07,21,4.40
2018,10,15,07,22,4.40
2018,10,15,07,23,4.50
2018,10,15,07,24,4.50
2018,10,15,07,25,4.60
2018,10,15,07,26,4.60
2018,10,15,07,27,4.70
2018,10,15,07,28,4.70
2018,10,15,07,29,4.70
2018,10,15,07,30,4.70
2018,10,15,07,31,4.70
2018,10,15,07,32,4.80
2018,10,15,07,33,4.80
2018,10,15,07,34,4.80
2018,10,15,07,35,4.80
2018,10,15,07,36,4.90
2018,10,15,07,37,4.90
2018,10,15,07,38,5.00
2018,10,15,07,39,5.10
2018,10,15,07,40,5.10
2018,10,15,07,41,5.10
2018,10,15,07,42,5.10
2018,10,15,07,43,5.20
2018,10,15,07,44,5.20
2018,10,15,07,45,5.20
2018,10,15,07,46,5.20
2018,10,15,07,47,5.20
2018,10,15,07,48,5.20
2018,10,15,07,49,5.20
2018,10,15,07,50,5.20
2018,10,15,07,51,5.20
2018,10,15,07,52,5.20
2018,10,15,07,53,5.10
2018,10,15,07,54,5.10
2018,10,15,07,55,5.10
2018,10,15,07,56,5.10
2018,10,15,07,57,5.10
2018,10,15,07,58,5.10
2018,10,15,07,59,5.10
2018,10,15,08,00,5.10
2018,10,15,08,01,5.10
2018,10,15,08,02,5.10
2018,10,15,08,03,5.20
2018,10,15,08,04,5.20
2018,10,15,08,05,5.20
2018,10,15,08,06,5.20
2018,10,15,08,07,5.30
2018,10,15,08,08,5.40
2018,10,15,08,09,5.60
2018,10,15,08,10,5.70
2018,10,15,08,11,5.80
2018,10,15,08,12,5.80
2018,10,15,08,13,5.90
2018,10,15,08,14,5.90
2018,10,15,08,15,5.90
2018,10,15,08,16,6.00
2018,10,15,08,17,6.00
2018,10,15,08,18,6.10
2018,10,15,08,19,6.00
2018,10,15,08,20,6.00
2018,10,15,08,21,6.00
2018,10,15,08,22,6.00
2018,10,15,08,23,6.10
2018,10,15,08,24,6.10
2018,10,15,08,25,6.10
2018,10,15,08,26,6.10
2018,10,15,08,27,6.20
2018,10,15,08,28,6.30
2018,10,15,08,29,6.40
2018,10,15,08,30,6.60
2018,10,15,08,31,6.80
2018,10,15,08,32,6.90
2018,10,15,08,33,7.00
2018,10,15,08,34,7.10
2018,10,15,08,35,7.10
2018,10,15,08,36,7.20
2018,10,15,08,37,7.10
2018,10,15,08,38,7.10
2018,10,15,08,39,7.00
2018,10,15,08,40,6.90
2018,10,15,08,41,6.80
2018,10,15,08,42,6.70
2018,10,15,08,43,6.60
2018,10,15,08,44,6.60
2018,10,15,08,45,6.50
2018,10,15,08,46,6.50
2018,10,15,08,47,6.40
2018,10,15,08,48,6.40
2018,10,15,08,49,6.30
2018,10,15,08,50,6.30
2018,10,15,08,51,6.30
2018,10,15,08,52,6.30
2018,10,15,08,53,6.30
2018,10,15,08,54,6.30
2018,10,15,08,55,6.30
2018,10,15,08,56,6.30
2018,10,15,08,57,6.30
2018,10,15,08,58,6.30
2018,10,15,08,59,6.40
2018,10,15,09,00,6.50
2018,10,15,09,01,6.60
2018,10,15,09,02,6.70
2018,10,15,09,03,6.80
2018,10,15,09,04,6.90
2018,10,15,09,05,7.00
2018,10,15,09,06,7.20
2018,10,15,09,07,7.30
2018,10,15,09,08,7.50
2018,10,15,09,09,7.70
2018,10,15,09,10,8.00
2018,10,15,09,11,8.20
2018,10,15,09,12,8.40
2018,10,15,09,13,8.60
2018,10,15,09,14,8.70
2018,10,15,09,15,8.90
2018,10,15,09,16,9.10
2018,10,15,09,17,9.20
2018,10,15,09,18,9.40
2018,10,15,09,19,9.60
2018,10,15,09,20,9.70
2018,10,15,09,21,9.90
2018,10,15,09,22,10.00
2018,10,15,09,23,10.10
2018,10,15,09,24,10.20
2018,10,15,09,25,10.30
2018,10,15,09,26,10.40
2018,10,15,09,27,10.40
2018,10,15,09,28,10.50
2018,10,15,09,29,10.60
2018,10,15,09,30,10.70
2018,10,15,09,31,10.80
2018,10,15,09,32,10.90
2018,10,15,09,33,11.00
2018,10,15,09,34,11.10
2018,10,15,09,35,11.20
2018,10,15,09,36,11.30
2018,10,15,09,37,11.30
2018,10,15,09,38,11.40
2018,10,15,09,39,11.50
2018,10,15,09,40,11.60
2018,10,15,09,41,11.70
2018,10,15,09,42,11.80
2018,10,15,09,43,11.80
2018,10,15,09,44,11.90
2018,10,15,09,45,11.90
2018,10,15,09,46,12.00
2018,10,15,09,47,12.00
2018,10,15,09,48,12.10
2018,10,15,09,49,12.10
2018,10,15,09,50,12.20
2018,10,15,09,51,12.20
2018,10,15,09,52,12.20
2018,10,15,09,53,12.30
2018,10,15,09,54,12.30
2018,10,15,09,55,12.40
2018,10,15,09,56,12.40
2018,10,15,09,57,12.50
2018,10,15,09,58,12.60
2018,10,15,09,59,12.60
2018,10,15,10,00,12.70
2018,10,15,10,01,12.70
2018,10,15,10,02,12.70
2018,10,15,10,03,12.70
2018,10,15,10,04,12.80
2018,10,15,10,05,12.80
2018,10,15,10,06,12.80
2018,10,15,10,07,12.90
2018,10,15,10,08,12.90
2018,10,15,10,09,12.90
2018,10,15,10,10,13.00
2018,10,15,10,11,13.00
2018,10,15,10,12,13.00
2018,10,15,10,13,13.10
2018,10,15,10,14,13.10
2018,10,15,10,15,13.10
2018,10,15,10,16,13.10
2018,10,15,10,17,13.10
2018,10,15,10,18,13.10
2018,10,15,10,19,13.10
2018,10,15,10,20,13.10
2018,10,15,10,21,13.10
2018,10,15,10,22,13.10
2018,10,15,10,23,13.20
2018,10,15,10,24,13.20
2018,10,15,10,25,13.30
2018,10,15,10,26,13.30
2018,10,15,10,27,13.40
2018,10,15,10,28,13.40
2018,10,15,10,29,13.50
2018,10,15,10,30,13.50
2018,10,15,10,31,13.50
2018,10,15,10,32,13.50
2018,10,15,10,33,13.50
2018,10,15,10,34,13.60
2018,10,15,10,35,13.50
2018,10,15,10,36,13.50
2018,10,15,10,37,13.40
2018,10,15,10,38,13.50
2018,10,15,10,39,13.50
2018,10,15,10,40,13.50
2018,10,15,10,41,13.50
2018,10,15,10,42,13.50
2018,10,15,10,43,13.50
2018,10,15,10,44,13.40
2018,10,15,10,45,13.50
2018,10,15,10,46,13.50
2018,10,15,10,47,13.60
2018,10,15,10,48,13.70
2018,10,15,10,49,13.70
2018,10,15,10,50,13.80
2018,10,15,10,51,13.90
2018,10,15,10,52,13.90
2018,10,15,10,53,13.90
2018,10,15,10,54,13.90
2018,10,15,10,55,13.90
2018,10,15,10,56,13.90
2018,10,15,10,57,13.90
2018,10,15,10,58,14.00
2018,10,15,10,59,14.00
2018,10,15,11,00,14.10
2018,10,15,11,01,14.10
2018,10,15,11,02,14.10
2018,10,15,11,03,14.10
2018,10,15,11,04,14.10
2018,10,15,11,05,14.20
2018,10,15,11,06,14.20
2018,10,15,11,07,14.20
2018,10,15,11,08,14.30
2018,10,15,11,09,14.30
2018,10,15,11,10,14.30
2018,10,15,11,11,14.30
2018,10,15,11,12,14.30
2018,10,15,11,13,14.40
2018,10,15,11,14,14.40
2018,10,15,11,15,14.40
2018,10,15,11,16,14.50
2018,10,15,11,17,14.50
2018,10,15,11,18,14.60
2018,10,15,11,19,14.60
2018,10,15,11,20,14.70
2018,10,15,11,21,14.60
2018,10,15,11,22,14.60
2018,10,15,11,23,14.60
2018,10,15,11,24,14.60
2018,10,15,11,25,14.70
2018,10,15,11,26,14.70
2018,10,15,11,27,14.70
2018,10,15,11,28,14.70
2018,10,15,11,29,14.80
2018,10,15,11,30,14.80
2018,10,15,11,31,14.80
2018,10,15,11,32,14.90
2018,10,15,11,33,14.90
2018,10,15,11,34,14.90
2018,10,15,11,35,14.90
2018,10,15,11,36,15.00
2018,10,15,11,37,15.00
2018,10,15,11,38,15.00
2018,10,15,11,39,15.00
2018,10,15,11,40,14.90
2018,10,15,11,41,14.90
2018,10,15,11,42,14.90
2018,10,15,11,43,15.00
2018,10,15,11,44,15.00
2018,10,15,11,45,15.10
2018,10,15,11,46,15.10
2018,10,15,11,47,15.10
2018,10,15,11,48,15.10
2018,10,15,11,49,15.20
2018,10,15,11,50,15.20
2018,10,15,11,51,15.20
2018,10,15,11,52,15.20
2018,10,15,11,53,15.20
2018,10,15,11,54,15.20
2018,10,15,11,55,15.20
2018,10,15,11,56,15.30
2018,10,15,11,57,15.30
2018,10,15,11,58,15.40
2018,10,15,11,59,15.40
2018,10,15,12,00,15.40
2018,10,15,12,01,15.50
2018,10,15,12,02,15.50
2018,10,15,12,03,15.50
2018,10,15,12,04,15.50
2018,10,15,12,05,15.50
2018,10,15,12,06,15.50
2018,10,15,12,07,15.40
2018,10,15,12,08,15.40
2018,10,15,12,09,15.30
2018,10,15,12,10,15.30
2018,10,15,12,11,15.30
2018,10,15,12,12,15.30
2018,10,15,12,13,15.30
2018,10,15,12,14,15.40
2018,10,15,12,15,15.40
2018,10,15,12,16,15.40
2018,10,15,12,17,15.40
2018,10,15,12,18,15.40
2018,10,15,12,19,15.40
2018,10,15,12,20,15.40
2018,10,15,12,21,15.50
2018,10,15,12,22,15.50
2018,10,15,12,23,15.50
2018,10,15,12,24,15.60
2018,10,15,12,25,15.60
2018,10,15,12,26,15.60
2018,10,15,12,27,15.60
2018,10,15,12,28,15.60
2018,10,15,12,29,15.60
2018,10,15,12,30,15.50
2018,10,15,12,31,15.50
2018,10,15,12,32,15.50
2018,10,15,12,33,15.50
2018,10,15,12,34,15.50
2018,10,15,12,35,15.50
2018,10,15,12,36,15.50
2018,10,15,12,37,15.50
2018,10,15,12,38,15.60
2018,10,15,12,39,15.60
2018,10,15,12,40,15.60
2018,10,15,12,41,15.50
2018,10,15,12,42,15.50
2018,10,15,12,43,15.50
2018,10,15,12,44,15.50
2018,10,15,12,45,15.50
2018,10,15,12,46,15.60
2018,10,15,12,47,15.50
2018,10,15,12,48,15.50
2018,10,15,12,49,15.50
2018,10,15,12,50,15.60
2018,10,15,12,51,15.60
2018,10,15,12,52,15.60
2018,10,15,12,53,15.60
2018,10,15,12,54,15.60
2018,10,15,12,55,15.60
2018,10,15,12,56,15.70
2018,10,15,12,57,15.60
2018,10,15,12,58,15.60
2018,10,15,12,59,15.60
2018,10,15,13,00,15.70
2018,10,15,13,01,15.70
2018,10,15,13,02,15.70
2018,10,15,13,03,15.70
2018,10,15,13,04,15.70
2018,10,15,13,05,15.70
2018,10,15,13,06,15.70
2018,10,15,13,07,15.80
2018,10,15,13,08,15.80
2018,10,15,13,09,15.80
2018,10,15,13,10,15.80
2018,10,15,13,11,15.90
2018,10,15,13,12,15.90
2018,10,15,13,13,16.00
2018,10,15,13,14,16.00
2018,10,15,13,15,16.00
2018,10,15,13,16,16.10
2018,10,15,13,17,16.10
2018,10,15,13,18,16.20
2018,10,15,13,19,16.20
2018,10,15,13,20,16.20
2018,10,15,13,21,16.30
2018,10,15,13,22,16.30
2018,10,15,13,23,16.30
2018,10,15,13,24,16.40
2018,10,15,13,25,16.40
2018,10,15,13,26,16.40
2018,10,15,13,27,16.40
2018,10,15,13,28,16.40
2018,10,15,13,29,16.40
2018,10,15,13,30,16.40
2018,10,15,13,31,16.50
2018,10,15,13,32,16.50
2018,10,15,13,33,16.50
2018,10,15,13,34,16.60
2018,10,15,13,35,16.60
2018,10,15,13,36,16.60
2018,10,15,13,37,16.60
2018,10,15,13,38,16.60
2018,10,15,13,39,16.60
2018,10,15,13,40,16.60
2018,10,15,13,41,16.50
2018,10,15,13,42,16.40
2018,10,15,13,43,16.40
2018,10,15,13,44,16.40
2018,10,15,13,45,16.40
2018,10,15,13,46,16.40
2018,10,15,13,47,16.40
2018,10,15,13,48,16.50
2018,10,15,13,49,16.50
2018,10,15,13,50,16.50
2018,10,15,13,51,16.50
2018,10,15,13,52,16.50
2018,10,15,13,53,16.50
2018,10,15,13,54,16.50
2018,10,15,13,55,16.50
2018,10,15,13,56,16.50
2018,10,15,13,57,16.60
2018,10,15,13,58,16.60
2018,10,15,13,59,16.60
2018,10,15,14,00,16.60
2018,10,15,14,01,16.50
2018,10,15,14,02,16.50
2018,10,15,14,03,16.40
2018,10,15,14,04,16.40
2018,10,15,14,05,16.50
2018,10,15,14,06,16.60
2018,10,15,14,07,16.60
2018,10,15,14,08,16.60
2018,10,15,14,09,16.60
2018,10,15,14,10,16.70
2018,10,15,14,11,16.70
2018,10,15,14,12,16.70
2018,10,15,14,13,16.80
2018,10,15,14,14,16.80
2018,10,15,14,15,16.80
2018,10,15,14,16,16.80
2018,10,15,14,17,16.90
2018,10,15,14,18,16.90
2018,10,15,14,19,16.90
2018,10,15,14,20,16.90
2018,10,15,14,21,16.80
2018,10,15,14,22,16.80
2018,10,15,14,23,16.70
2018,10,15,14,24,16.70
2018,10,15,14,25,16.70
2018,10,15,14,26,16.70
2018,10,15,14,27,16.70
2018,10,15,14,28,16.70
2018,10,15,14,29,16.70
2018,10,15,14,30,16.80
2018,10,15,14,31,16.90
2018,10,15,14,32,17.00
2018,10,15,14,33,17.00
2018,10,15,14,34,17.10
2018,10,15,14,35,17.20
2018,10,15,14,36,17.20
2018,10,15,14,37,17.30
2018,10,15,14,38,17.30
2018,10,15,14,39,17.30
2018,10,15,14,40,17.30
2018,10,15,14,41,17.30
2018,10,15,14,42,17.30
2018,10,15,14,43,17.30
2018,10,15,14,44,17.30
2018,10,15,14,45,17.30
2018,10,15,14,46,17.30
2018,10,15,14,47,17.30
2018,10,15,14,48,17.30
2018,10,15,14,49,17.30
2018,10,15,14,50,17.30
2018,10,15,14,51,17.30
2018,10,15,14,52,17.30
2018,10,15,14,53,17.30
2018,10,15,14,54,17.30
2018,10,15,14,55,17.30
2018,10,15,14,56,17.30
2018,10,15,14,57,17.30
2018,10,15,14,58,17.40
2018,10,15,14,59,17.40
2018,10,15,15,00,17.40
2018,10,15,15,01,17.50
2018,10,15,15,02,17.50
2018,10,15,15,03,17.50
2018,10,15,15,04,17.60
2018,10,15,15,05,17.60
2018,10,15,15,06,17.60
2018,10,15,15,07,17.60
2018,10,15,15,08,17.70
2018,10,15,15,09,17.70
2018,10,15,15,10,17.70
2018,10,15,15,11,17.70
2018,10,15,15,12,17.70
2018,10,15,15,13,17.70
2018,10,15,15,14,17.70
2018,10,15,15,15,17.60
2018,10,15,15,16,17.60
2018,10,15,15,17,17.60
2018,10,15,15,18,17.50
2018,10,15,15,19,17.40
2018,10,15,15,20,17.40
2018,10,15,15,21,17.40
2018,10,15,15,22,17.40
2018,10,15,15,23,17.40
2018,10,15,15,24,17.40
2018,10,15,15,25,17.50
2018,10,15,15,26,17.50
2018,10,15,15,27,17.50
2018,10,15,15,28,17.50
2018,10,15,15,29,17.50
2018,10,15,15,30,17.50
2018,10,15,15,31,17.50
2018,10,15,15,32,17.50
2018,10,15,15,33,17.50
2018,10,15,15,34,17.50
2018,10,15,15,35,17.40
2018,10,15,15,36,17.30
2018,10,15,15,37,17.30
2018,10,15,15,38,17.30
2018,10,15,15,39,17.30
2018,10,15,15,40,17.20
2018,10,15,15,41,17.20
2018,10,15,15,42,17.20
2018,10,15,15,43,17.20
2018,10,15,15,44,17.20
2018,10,15,15,45,17.30
2018,10,15,15,46,17.30
2018,10,15,15,47,17.30
2018,10,15,15,48,17.30
2018,10,15,15,49,17.40
2018,10,15,15,50,17.40
2018,10,15,15,51,17.40
2018,10,15,15,52,17.30
2018,10,15,15,53,17.30
2018,10,15,15,54,17.30
2018,10,15,15,55,17.30
2018,10,15,15,56,17.30
2018,10,15,15,57,17.30
2018,10,15,15,58,17.30
2018,10,15,15,59,17.30
2018,10,15,16,00,17.30
2018,10,15,16,01,17.30
2018,10,15,16,02,17.30
2018,10,15,16,03,17.30
2018,10,15,16,04,17.20
2018,10,15,16,05,17.20
2018,10,15,16,06,17.20
2018,10,15,16,07,17.20
2018,10,15,16,08,17.20
2018,10,15,16,09,17.20
2018,10,15,16,10,17.20
2018,10,15,16,11,17.20
2018,10,15,16,12,17.20
2018,10,15,16,13,17.20
2018,10,15,16,14,17.20
2018,10,15,16,15,17.10
2018,10,15,16,16,17.10
2018,10,15,16,17,17.10
2018,10,15,16,18,17.10
2018,10,15,16,19,17.10
2018,10,15,16,20,17.00
2018,10,15,16,21,17.00
2018,10,15,16,22,16.90
2018,10,15,16,23,16.90
2018,10,15,16,24,16.80
2018,10,15,16,25,16.80
2018,10,15,16,26,16.80
2018,10,15,16,27,16.80
2018,10,15,16,28,16.70
2018,10,15,16,29,16.70
2018,10,15,16,30,16.70
2018,10,15,16,31,16.70
2018,10,15,16,32,16.70
2018,10,15,16,33,16.60
2018,10,15,16,34,16.60
2018,10,15,16,35,16.60
2018,10,15,16,36,16.60
2018,10,15,16,37,16.60
2018,10,15,16,38,16.60
2018,10,15,16,39,16.70
2018,10,15,16,40,16.70
2018,10,15,16,41,16.80
2018,10,15,16,42,16.80
2018,10,15,16,43,16.80
2018,10,15,16,44,16.80
2018,10,15,16,45,16.80
2018,10,15,16,46,16.80
2018,10,15,16,47,16.80
2018,10,15,16,48,16.80
2018,10,15,16,49,16.80
2018,10,15,16,50,16.80
2018,10,15,16,51,16.70
2018,10,15,16,52,16.70
2018,10,15,16,53,16.70
2018,10,15,16,54,16.70
2018,10,15,16,55,16.70
2018,10,15,16,56,16.70
2018,10,15,16,57,16.80
2018,10,15,16,58,16.80
2018,10,15,16,59,16.80
2018,10,15,17,00,16.80
2018,10,15,17,01,16.80
2018,10,15,17,02,16.80
2018,10,15,17,03,16.80
2018,10,15,17,04,16.80
2018,10,15,17,05,16.80
2018,10,15,17,06,16.70
2018,10,15,17,07,16.70
2018,10,15,17,08,16.60
2018,10,15,17,09,16.60
2018,10,15,17,10,16.60
2018,10,15,17,11,16.60
2018,10,15,17,12,16.60
2018,10,15,17,13,16.60
2018,10,15,17,14,16.50
2018,10,15,17,15,16.50
2018,10,15,17,16,16.50
2018,10,15,17,17,16.40
2018,10,15,17,18,16.40
2018,10,15,17,19,16.40
2018,10,15,17,20,16.30
2018,10,15,17,21,16.30
2018,10,15,17,22,16.30
2018,10,15,17,23,16.20
2018,10,15,17,24,16.20
2018,10,15,17,25,16.20
2018,10,15,17,26,16.10
2018,10,15,17,27,16.00
2018,10,15,17,28,16.00
2018,10,15,17,29,15.90
2018,10,15,17,30,15.90
2018,10,15,17,31,15.90
2018,10,15,17,32,15.90
2018,10,15,17,33,15.90
2018,10,15,17,34,15.80
2018,10,15,17,35,15.80
2018,10,15,17,36,15.80
2018,10,15,17,37,15.80
2018,10,15,17,38,15.70
2018,10,15,17,39,15.70
2018,10,15,17,40,15.70
2018,10,15,17,41,15.70
2018,10,15,17,42,15.70
2018,10,15,17,43,15.70